,,PressureMeas_1m,,PRMeasQMR101_1,,RHStat155_1m_1,,SRMeasQMS101R_1m,,TAStat155_1m_1,,GenWind_1,,GenWind_1,
2018-05-28, 00:00:06,VALID,918.089,VALID,0.0,VALID,98.904,VALID,-0.018,VALID,21.168,VALID,111.0,VALID,1.852,
2018-05-28, 00:01:06,VALID,918.074,VALID,0.0,VALID,98.881,VALID,-0.014,VALID,21.166,VALID,111.0,VALID,1.795,
2018-05-28, 00:02:06,VALID,918.076,VALID,0.0,VALID,98.825,VALID,-0.021,VALID,21.166,VALID,113.0,VALID,2.106,
2018-05-28, 00:03:06,VALID,918.078,VALID,0.0,VALID,98.761,VALID,-0.019,VALID,21.174,VALID,115.0,VALID,1.839,
2018-05-28, 00:04:06,VALID,918.068,VALID,0.0,VALID,98.702,VALID,-0.015,VALID,21.195,VALID,114.0,VALID,1.84,
2018-05-28, 00:05:06,VALID,918.075,VALID,0.0,VALID,98.627,VALID,-0.021,VALID,21.19,VALID,117.0,VALID,2.307,
2018-05-28, 00:06:06,VALID,918.074,VALID,0.0,VALID,98.537,VALID,-0.033,VALID,21.213,VALID,113.0,VALID,2.001,
2018-05-28, 00:07:06,VALID,918.066,VALID,0.0,VALID,98.421,VALID,-0.002,VALID,21.22,VALID,113.0,VALID,1.719,
2018-05-28, 00:08:06,VALID,918.083,VALID,0.0,VALID,98.354,VALID,-0.006,VALID,21.229,VALID,114.0,VALID,1.87,
2018-05-28, 00:09:06,VALID,918.069,VALID,0.0,VALID,98.264,VALID,-0.003,VALID,21.241,VALID,113.0,VALID,1.918,
2018-05-28, 00:10:06,VALID,918.068,VALID,0.0,VALID,98.118,VALID,-0.004,VALID,21.242,VALID,119.0,VALID,2.271,
2018-05-28, 00:11:06,VALID,918.065,VALID,0.0,VALID,97.842,VALID,-0.013,VALID,21.259,VALID,111.0,VALID,2.064,
2018-05-28, 00:12:06,VALID,918.069,VALID,0.0,VALID,97.483,VALID,-0.008,VALID,21.291,VALID,108.0,VALID,2.366,
2018-05-28, 00:13:06,VALID,918.065,VALID,0.0,VALID,96.847,VALID,-0.021,VALID,21.332,VALID,104.0,VALID,2.193,
2018-05-28, 00:14:06,VALID,918.048,VALID,0.0,VALID,96.151,VALID,-0.015,VALID,21.404,VALID,103.0,VALID,2.087,
2018-05-28, 00:15:06,VALID,918.033,VALID,0.0,VALID,95.717,VALID,-0.014,VALID,21.463,VALID,109.0,VALID,1.639,
2018-05-28, 00:16:06,VALID,918.017,VALID,0.0,VALID,95.468,VALID,-0.008,VALID,21.472,VALID,105.0,VALID,1.584,
2018-05-28, 00:17:06,VALID,918.006,VALID,0.0,VALID,95.437,VALID,-0.019,VALID,21.466,VALID,112.0,VALID,1.737,
2018-05-28, 00:18:06,VALID,917.977,VALID,0.0,VALID,95.39,VALID,-0.018,VALID,21.45,VALID,99.0,VALID,1.539,
2018-05-28, 00:19:06,VALID,917.964,VALID,0.0,VALID,95.272,VALID,-0.041,VALID,21.445,VALID,101.0,VALID,1.141,
2018-05-28, 00:20:06,VALID,917.96,VALID,0.0,VALID,95.105,VALID,-0.029,VALID,21.446,VALID,96.0,VALID,1.52,
2018-05-28, 00:21:06,VALID,917.942,VALID,0.0,VALID,94.931,VALID,-0.05,VALID,21.455,VALID,103.0,VALID,1.436,
2018-05-28, 00:22:06,VALID,917.933,VALID,0.0,VALID,94.864,VALID,-0.035,VALID,21.457,VALID,107.0,VALID,1.54,
2018-05-28, 00:23:06,VALID,917.91,VALID,0.0,VALID,94.821,VALID,-0.035,VALID,21.448,VALID,105.0,VALID,1.506,
2018-05-28, 00:24:06,VALID,917.9,VALID,0.0,VALID,94.646,VALID,-0.028,VALID,21.436,VALID,106.0,VALID,1.392,
2018-05-28, 00:25:06,VALID,917.89,VALID,0.0,VALID,94.34,VALID,-0.03,VALID,21.435,VALID,110.0,VALID,1.802,
2018-05-28, 00:26:06,VALID,917.882,VALID,0.0,VALID,94.253,VALID,-0.037,VALID,21.454,VALID,108.0,VALID,1.735,
2018-05-28, 00:27:06,VALID,917.866,VALID,0.0,VALID,94.245,VALID,-0.029,VALID,21.455,VALID,111.0,VALID,1.841,
2018-05-28, 00:28:06,VALID,917.886,VALID,0.0,VALID,94.197,VALID,-0.03,VALID,21.449,VALID,115.0,VALID,1.802,
2018-05-28, 00:29:06,VALID,917.873,VALID,0.0,VALID,94.298,VALID,-0.03,VALID,21.434,VALID,112.0,VALID,1.987,
2018-05-28, 00:30:06,VALID,917.86,VALID,0.0,VALID,94.326,VALID,-0.03,VALID,21.411,VALID,111.0,VALID,1.839,
2018-05-28, 00:31:06,VALID,917.843,VALID,0.0,VALID,94.252,VALID,-0.044,VALID,21.408,VALID,108.0,VALID,1.939,
2018-05-28, 00:32:06,VALID,917.825,VALID,0.0,VALID,94.21,VALID,-0.018,VALID,21.415,VALID,104.0,VALID,2.112,
2018-05-28, 00:33:06,VALID,917.824,VALID,0.0,VALID,93.925,VALID,0.002,VALID,21.425,VALID,97.0,VALID,1.707,
2018-05-28, 00:34:06,VALID,917.792,VALID,0.0,VALID,93.664,VALID,0.059,VALID,21.453,VALID,93.0,VALID,1.927,
2018-05-28, 00:35:06,VALID,917.773,VALID,0.0,VALID,93.29,VALID,0.07,VALID,21.5,VALID,87.0,VALID,1.697,
2018-05-28, 00:36:06,VALID,917.758,VALID,0.0,VALID,92.796,VALID,0.068,VALID,21.511,VALID,94.0,VALID,2.269,
2018-05-28, 00:37:06,VALID,917.731,VALID,0.0,VALID,92.191,VALID,0.071,VALID,21.615,VALID,91.0,VALID,1.628,
2018-05-28, 00:38:06,VALID,917.706,VALID,0.0,VALID,92.204,VALID,0.062,VALID,21.627,VALID,95.0,VALID,1.703,
2018-05-28, 00:39:06,VALID,917.696,VALID,0.0,VALID,92.128,VALID,0.075,VALID,21.624,VALID,100.0,VALID,1.799,
2018-05-28, 00:40:06,VALID,917.682,VALID,0.0,VALID,92.317,VALID,0.098,VALID,21.627,VALID,91.0,VALID,1.732,
2018-05-28, 00:41:06,VALID,917.676,VALID,0.0,VALID,92.09,VALID,0.089,VALID,21.585,VALID,92.0,VALID,2.266,
2018-05-28, 00:42:06,VALID,917.663,VALID,0.0,VALID,92.0,VALID,0.071,VALID,21.628,VALID,100.0,VALID,1.733,
2018-05-28, 00:43:06,VALID,917.668,VALID,0.0,VALID,91.58,VALID,0.069,VALID,21.614,VALID,103.0,VALID,1.881,
2018-05-28, 00:44:06,VALID,917.667,VALID,0.0,VALID,91.194,VALID,0.083,VALID,21.665,VALID,106.0,VALID,2.039,
2018-05-28, 00:45:06,VALID,917.663,VALID,0.0,VALID,91.212,VALID,0.071,VALID,21.674,VALID,106.0,VALID,2.157,
2018-05-28, 00:46:06,VALID,917.675,VALID,0.0,VALID,91.532,VALID,0.083,VALID,21.649,VALID,105.0,VALID,2.098,
2018-05-28, 00:47:06,VALID,917.677,VALID,0.0,VALID,91.805,VALID,0.087,VALID,21.602,VALID,107.0,VALID,1.902,
2018-05-28, 00:48:06,VALID,917.684,VALID,0.0,VALID,92.21,VALID,0.06,VALID,21.576,VALID,114.0,VALID,1.968,
2018-05-28, 00:49:06,VALID,917.678,VALID,0.0,VALID,92.861,VALID,0.041,VALID,21.521,VALID,125.0,VALID,2.044,
2018-05-28, 00:50:06,VALID,917.683,VALID,0.0,VALID,93.035,VALID,0.051,VALID,21.489,VALID,118.0,VALID,2.159,
2018-05-28, 00:51:06,VALID,917.681,VALID,0.0,VALID,93.014,VALID,0.046,VALID,21.488,VALID,114.0,VALID,1.517,
2018-05-28, 00:52:06,VALID,917.681,VALID,0.0,VALID,93.174,VALID,0.058,VALID,21.482,VALID,114.0,VALID,1.003,
2018-05-28, 00:53:06,VALID,917.674,VALID,0.0,VALID,93.506,VALID,0.047,VALID,21.46,VALID,98.0,VALID,0.498,
2018-05-28, 00:54:06,VALID,917.679,VALID,0.0,VALID,93.778,VALID,0.057,VALID,21.428,VALID,106.0,VALID,0.152,
2018-05-28, 00:55:06,VALID,917.689,VALID,0.0,VALID,93.793,VALID,0.054,VALID,21.387,VALID,124.0,VALID,0.455,
2018-05-28, 00:56:06,VALID,917.689,VALID,0.0,VALID,93.591,VALID,0.047,VALID,21.39,VALID,88.0,VALID,0.395,
2018-05-28, 00:57:06,VALID,917.698,VALID,0.0,VALID,94.015,VALID,0.041,VALID,21.401,VALID,59.0,VALID,0.069,
2018-05-28, 00:58:06,VALID,917.708,VALID,0.0,VALID,94.091,VALID,0.043,VALID,21.368,VALID,41.0,VALID,0.032,
2018-05-28, 00:59:06,VALID,917.699,VALID,0.0,VALID,94.289,VALID,0.04,VALID,21.328,VALID,22.0,VALID,0.0,
2018-05-28, 01:00:06,VALID,917.701,VALID,0.0,VALID,94.561,VALID,0.046,VALID,21.282,VALID,19.0,VALID,0.138,
2018-05-28, 01:01:06,VALID,917.704,VALID,0.0,VALID,94.963,VALID,0.038,VALID,21.244,VALID,23.0,VALID,0.288,
2018-05-28, 01:02:06,VALID,917.701,VALID,0.0,VALID,95.395,VALID,0.034,VALID,21.213,VALID,41.0,VALID,0.12,
2018-05-28, 01:03:06,VALID,917.704,VALID,0.0,VALID,95.59,VALID,0.026,VALID,21.175,VALID,54.0,VALID,0.453,
2018-05-28, 01:04:06,VALID,917.697,VALID,0.0,VALID,95.9,VALID,0.034,VALID,21.126,VALID,43.0,VALID,0.852,
2018-05-28, 01:05:06,VALID,917.683,VALID,0.0,VALID,95.932,VALID,0.05,VALID,21.082,VALID,44.0,VALID,1.017,
2018-05-28, 01:06:06,VALID,917.679,VALID,0.0,VALID,95.509,VALID,0.047,VALID,21.098,VALID,65.0,VALID,1.471,
2018-05-28, 01:07:06,VALID,917.668,VALID,0.0,VALID,94.554,VALID,0.044,VALID,21.185,VALID,85.0,VALID,1.434,
2018-05-28, 01:08:06,VALID,917.658,VALID,0.0,VALID,93.753,VALID,0.044,VALID,21.307,VALID,67.0,VALID,1.397,
2018-05-28, 01:09:06,VALID,917.654,VALID,0.0,VALID,93.559,VALID,0.034,VALID,21.389,VALID,92.0,VALID,1.241,
2018-05-28, 01:10:06,VALID,917.636,VALID,0.0,VALID,93.754,VALID,0.045,VALID,21.371,VALID,96.0,VALID,1.321,
2018-05-28, 01:11:06,VALID,917.627,VALID,0.0,VALID,93.946,VALID,0.044,VALID,21.346,VALID,100.0,VALID,1.096,
2018-05-28, 01:12:06,VALID,917.601,VALID,0.0,VALID,94.458,VALID,0.045,VALID,21.302,VALID,108.0,VALID,1.332,
2018-05-28, 01:13:06,VALID,917.593,VALID,0.0,VALID,94.687,VALID,0.05,VALID,21.243,VALID,109.0,VALID,1.412,
2018-05-28, 01:14:06,VALID,917.588,VALID,0.0,VALID,94.817,VALID,0.033,VALID,21.215,VALID,112.0,VALID,1.507,
2018-05-28, 01:15:06,VALID,917.586,VALID,0.0,VALID,94.875,VALID,0.037,VALID,21.204,VALID,111.0,VALID,1.337,
2018-05-28, 01:16:06,VALID,917.572,VALID,0.0,VALID,94.933,VALID,0.055,VALID,21.201,VALID,116.0,VALID,0.995,
2018-05-28, 01:17:06,VALID,917.547,VALID,0.0,VALID,95.018,VALID,0.057,VALID,21.182,VALID,116.0,VALID,1.415,
2018-05-28, 01:18:06,VALID,917.524,VALID,0.0,VALID,95.014,VALID,0.052,VALID,21.176,VALID,110.0,VALID,1.265,
2018-05-28, 01:19:06,VALID,917.506,VALID,0.0,VALID,94.953,VALID,0.045,VALID,21.177,VALID,111.0,VALID,0.914,
2018-05-28, 01:20:06,VALID,917.465,VALID,0.0,VALID,94.934,VALID,0.044,VALID,21.183,VALID,118.0,VALID,0.945,
2018-05-28, 01:21:06,VALID,917.43,VALID,0.0,VALID,95.011,VALID,0.042,VALID,21.188,VALID,128.0,VALID,0.54,
2018-05-28, 01:22:06,VALID,917.389,VALID,0.0,VALID,95.114,VALID,0.048,VALID,21.185,VALID,133.0,VALID,0.491,
2018-05-28, 01:23:06,VALID,917.348,VALID,0.0,VALID,95.212,VALID,0.04,VALID,21.183,VALID,134.0,VALID,0.243,
2018-05-28, 01:24:06,VALID,917.32,VALID,0.0,VALID,95.12,VALID,0.046,VALID,21.185,VALID,137.0,VALID,0.206,
2018-05-28, 01:25:06,VALID,917.297,VALID,0.0,VALID,94.989,VALID,0.027,VALID,21.191,VALID,130.0,VALID,0.524,
2018-05-28, 01:26:06,VALID,917.272,VALID,0.0,VALID,94.915,VALID,0.052,VALID,21.201,VALID,131.0,VALID,0.289,
2018-05-28, 01:27:06,VALID,917.254,VALID,0.0,VALID,94.912,VALID,0.041,VALID,21.208,VALID,126.0,VALID,0.63,
2018-05-28, 01:28:06,VALID,917.245,VALID,0.0,VALID,94.868,VALID,0.048,VALID,21.191,VALID,119.0,VALID,0.98,
2018-05-28, 01:29:06,VALID,917.219,VALID,0.0,VALID,94.837,VALID,0.052,VALID,21.182,VALID,128.0,VALID,0.82,
2018-05-28, 01:30:06,VALID,917.198,VALID,0.0,VALID,95.02,VALID,0.069,VALID,21.171,VALID,124.0,VALID,0.757,
2018-05-28, 01:31:06,VALID,917.18,VALID,0.0,VALID,95.019,VALID,0.069,VALID,21.145,VALID,108.0,VALID,1.017,
2018-05-28, 01:32:06,VALID,917.164,VALID,0.0,VALID,95.082,VALID,0.059,VALID,21.121,VALID,105.0,VALID,1.081,
2018-05-28, 01:33:06,VALID,917.145,VALID,0.0,VALID,95.169,VALID,0.041,VALID,21.114,VALID,104.0,VALID,1.095,
2018-05-28, 01:34:06,VALID,917.149,VALID,0.0,VALID,95.23,VALID,0.053,VALID,21.103,VALID,103.0,VALID,1.307,
2018-05-28, 01:35:06,VALID,917.142,VALID,0.0,VALID,95.167,VALID,0.045,VALID,21.106,VALID,99.0,VALID,1.373,
2018-05-28, 01:36:06,VALID,917.143,VALID,0.0,VALID,95.19,VALID,0.055,VALID,21.106,VALID,96.0,VALID,1.261,
2018-05-28, 01:37:06,VALID,917.135,VALID,0.0,VALID,95.183,VALID,0.048,VALID,21.112,VALID,90.0,VALID,1.379,
2018-05-28, 01:38:06,VALID,917.12,VALID,0.0,VALID,95.199,VALID,0.034,VALID,21.106,VALID,88.0,VALID,1.277,
2018-05-28, 01:39:06,VALID,917.116,VALID,0.0,VALID,95.273,VALID,0.052,VALID,21.091,VALID,88.0,VALID,1.085,
2018-05-28, 01:40:06,VALID,917.099,VALID,0.0,VALID,95.419,VALID,0.042,VALID,21.072,VALID,87.0,VALID,1.391,
2018-05-28, 01:41:06,VALID,917.09,VALID,0.0,VALID,95.509,VALID,0.041,VALID,21.06,VALID,88.0,VALID,1.382,
2018-05-28, 01:42:06,VALID,917.076,VALID,0.0,VALID,95.567,VALID,0.046,VALID,21.042,VALID,81.0,VALID,0.911,
2018-05-28, 01:43:06,VALID,917.053,VALID,0.0,VALID,95.779,VALID,0.038,VALID,21.013,VALID,83.0,VALID,0.931,
2018-05-28, 01:44:06,VALID,917.033,VALID,0.0,VALID,95.932,VALID,0.04,VALID,20.99,VALID,89.0,VALID,0.986,
2018-05-28, 01:45:06,VALID,917.025,VALID,0.0,VALID,95.987,VALID,0.033,VALID,20.981,VALID,81.0,VALID,0.689,
2018-05-28, 01:46:06,VALID,917.004,VALID,0.0,VALID,96.04,VALID,0.034,VALID,20.977,VALID,80.0,VALID,1.067,
2018-05-28, 01:47:06,VALID,916.996,VALID,0.0,VALID,96.094,VALID,0.024,VALID,20.971,VALID,73.0,VALID,1.095,
2018-05-28, 01:48:06,VALID,916.992,VALID,0.0,VALID,96.09,VALID,0.03,VALID,20.964,VALID,73.0,VALID,0.988,
2018-05-28, 01:49:06,VALID,916.987,VALID,0.0,VALID,96.069,VALID,0.04,VALID,20.961,VALID,74.0,VALID,0.957,
2018-05-28, 01:50:06,VALID,916.98,VALID,0.0,VALID,96.026,VALID,0.042,VALID,20.969,VALID,73.0,VALID,0.613,
2018-05-28, 01:51:06,VALID,916.976,VALID,0.0,VALID,96.096,VALID,0.039,VALID,20.966,VALID,53.0,VALID,0.438,
2018-05-28, 01:52:06,VALID,916.973,VALID,0.0,VALID,96.2,VALID,0.044,VALID,20.951,VALID,57.0,VALID,0.635,
2018-05-28, 01:53:06,VALID,916.972,VALID,0.0,VALID,96.223,VALID,0.055,VALID,20.941,VALID,33.0,VALID,0.407,
2018-05-28, 01:54:06,VALID,916.97,VALID,0.0,VALID,96.281,VALID,0.056,VALID,20.943,VALID,2.0,VALID,0.043,
2018-05-28, 01:55:06,VALID,916.97,VALID,0.0,VALID,96.288,VALID,0.041,VALID,20.949,VALID,8.0,VALID,0.055,
2018-05-28, 01:56:06,VALID,916.969,VALID,0.0,VALID,96.262,VALID,-0.019,VALID,20.937,VALID,358.0,VALID,0.0,
2018-05-28, 01:57:06,VALID,916.976,VALID,0.0,VALID,96.24,VALID,-0.011,VALID,20.927,VALID,5.0,VALID,0.0,
2018-05-28, 01:58:06,VALID,916.981,VALID,0.0,VALID,96.353,VALID,-0.021,VALID,20.926,VALID,33.0,VALID,0.0,
2018-05-28, 01:59:06,VALID,916.986,VALID,0.0,VALID,96.401,VALID,-0.026,VALID,20.922,VALID,55.0,VALID,0.0,
2018-05-28, 02:00:06,VALID,916.983,VALID,0.0,VALID,96.395,VALID,-0.007,VALID,20.917,VALID,64.0,VALID,0.0,
2018-05-28, 02:01:06,VALID,916.972,VALID,0.0,VALID,96.455,VALID,-0.009,VALID,20.901,VALID,71.0,VALID,0.0,
2018-05-28, 02:02:06,VALID,916.964,VALID,0.0,VALID,96.538,VALID,-0.007,VALID,20.901,VALID,100.0,VALID,0.0,
2018-05-28, 02:03:06,VALID,916.957,VALID,0.0,VALID,96.639,VALID,-0.02,VALID,20.896,VALID,105.0,VALID,0.0,
2018-05-28, 02:04:06,VALID,916.954,VALID,0.0,VALID,96.672,VALID,-0.013,VALID,20.883,VALID,105.0,VALID,0.0,
2018-05-28, 02:05:06,VALID,916.958,VALID,0.0,VALID,96.665,VALID,-0.034,VALID,20.854,VALID,106.0,VALID,0.0,
2018-05-28, 02:06:06,VALID,916.953,VALID,0.0,VALID,96.648,VALID,-0.029,VALID,20.839,VALID,142.0,VALID,0.0,
2018-05-28, 02:07:06,VALID,916.95,VALID,0.0,VALID,96.721,VALID,-0.031,VALID,20.832,VALID,139.0,VALID,0.0,
2018-05-28, 02:08:06,VALID,916.946,VALID,0.0,VALID,96.764,VALID,-0.01,VALID,20.829,INVALID,360.0,VALID,0.0,
2018-05-28, 02:09:06,VALID,916.954,VALID,0.0,VALID,96.778,VALID,-0.023,VALID,20.825,VALID,120.0,VALID,0.385,
2018-05-28, 02:10:06,VALID,916.954,VALID,0.0,VALID,96.752,VALID,-0.011,VALID,20.814,VALID,105.0,VALID,0.579,
2018-05-28, 02:11:06,VALID,916.946,VALID,0.0,VALID,96.702,VALID,-0.016,VALID,20.804,VALID,113.0,VALID,1.0,
2018-05-28, 02:12:06,VALID,916.943,VALID,0.0,VALID,96.633,VALID,-0.026,VALID,20.805,VALID,114.0,VALID,1.118,
2018-05-28, 02:13:06,VALID,916.928,VALID,0.0,VALID,96.565,VALID,-0.022,VALID,20.825,VALID,112.0,VALID,1.068,
2018-05-28, 02:14:06,VALID,916.918,VALID,0.0,VALID,96.47,VALID,-0.026,VALID,20.851,VALID,105.0,VALID,0.857,
2018-05-28, 02:15:06,VALID,916.9,VALID,0.0,VALID,96.362,VALID,-0.016,VALID,20.858,VALID,104.0,VALID,0.674,
2018-05-28, 02:16:06,VALID,916.889,VALID,0.0,VALID,96.287,VALID,-0.034,VALID,20.863,VALID,103.0,VALID,0.651,
2018-05-28, 02:17:06,VALID,916.875,VALID,0.0,VALID,96.233,VALID,-0.017,VALID,20.857,VALID,103.0,VALID,0.768,
2018-05-28, 02:18:06,VALID,916.881,VALID,0.0,VALID,96.264,VALID,0.011,VALID,20.871,VALID,109.0,VALID,0.86,
2018-05-28, 02:19:06,VALID,916.872,VALID,0.0,VALID,96.197,VALID,0.069,VALID,20.887,VALID,109.0,VALID,0.734,
2018-05-28, 02:20:06,VALID,916.865,VALID,0.0,VALID,96.146,VALID,0.057,VALID,20.896,VALID,116.0,VALID,0.755,
2018-05-28, 02:21:06,VALID,916.866,VALID,0.0,VALID,96.077,VALID,0.081,VALID,20.917,VALID,114.0,VALID,0.971,
2018-05-28, 02:22:06,VALID,916.859,VALID,0.0,VALID,96.018,VALID,0.062,VALID,20.952,VALID,127.0,VALID,0.707,
2018-05-28, 02:23:06,VALID,916.866,VALID,0.0,VALID,95.918,VALID,0.061,VALID,20.971,VALID,117.0,VALID,0.963,
2018-05-28, 02:24:06,VALID,916.865,VALID,0.0,VALID,95.801,VALID,0.069,VALID,20.991,VALID,127.0,VALID,0.857,
2018-05-28, 02:25:06,VALID,916.86,VALID,0.0,VALID,95.784,VALID,0.073,VALID,21.003,VALID,120.0,VALID,0.798,
2018-05-28, 02:26:06,VALID,916.849,VALID,0.0,VALID,95.714,VALID,0.058,VALID,21.012,VALID,112.0,VALID,0.651,
2018-05-28, 02:27:06,VALID,916.851,VALID,0.0,VALID,95.68,VALID,0.054,VALID,21.004,VALID,113.0,VALID,0.949,
2018-05-28, 02:28:06,VALID,916.843,VALID,0.0,VALID,95.707,VALID,0.051,VALID,20.991,VALID,121.0,VALID,0.954,
2018-05-28, 02:29:06,VALID,916.816,VALID,0.0,VALID,95.864,VALID,0.046,VALID,21.001,VALID,123.0,VALID,0.743,
2018-05-28, 02:30:06,VALID,916.804,VALID,0.0,VALID,95.913,VALID,0.065,VALID,21.026,VALID,72.0,VALID,0.128,
2018-05-28, 02:31:06,VALID,916.796,VALID,0.0,VALID,95.81,VALID,0.061,VALID,21.017,VALID,126.0,VALID,0.82,
2018-05-28, 02:32:06,VALID,916.776,VALID,0.0,VALID,95.897,VALID,0.056,VALID,21.015,VALID,142.0,VALID,0.775,
2018-05-28, 02:33:06,VALID,916.757,VALID,0.0,VALID,95.915,VALID,0.042,VALID,21.019,VALID,126.0,VALID,0.849,
2018-05-28, 02:34:06,VALID,916.761,VALID,0.0,VALID,95.956,VALID,-0.025,VALID,21.016,VALID,135.0,VALID,0.866,
2018-05-28, 02:35:06,VALID,916.751,VALID,0.0,VALID,95.967,VALID,-0.015,VALID,21.019,VALID,119.0,VALID,0.895,
2018-05-28, 02:36:06,VALID,916.755,VALID,0.0,VALID,95.971,VALID,-0.017,VALID,21.012,VALID,121.0,VALID,1.433,
2018-05-28, 02:37:06,VALID,916.723,VALID,0.0,VALID,96.005,VALID,-0.003,VALID,21.01,VALID,125.0,VALID,1.016,
2018-05-28, 02:38:06,VALID,916.708,VALID,0.0,VALID,96.046,VALID,-0.008,VALID,21.014,VALID,125.0,VALID,1.234,
2018-05-28, 02:39:06,VALID,916.695,VALID,0.0,VALID,96.066,VALID,-0.012,VALID,21.006,VALID,112.0,VALID,1.173,
2018-05-28, 02:40:06,VALID,916.685,VALID,0.0,VALID,96.025,VALID,-0.018,VALID,20.996,VALID,119.0,VALID,0.977,
2018-05-28, 02:41:06,VALID,916.682,VALID,0.0,VALID,96.13,VALID,-0.012,VALID,20.977,VALID,122.0,VALID,1.388,
2018-05-28, 02:42:06,VALID,916.657,VALID,0.0,VALID,96.23,VALID,-0.01,VALID,20.984,VALID,129.0,VALID,1.26,
2018-05-28, 02:43:06,VALID,916.658,VALID,0.0,VALID,96.19,VALID,0.002,VALID,21.003,VALID,121.0,VALID,1.615,
2018-05-28, 02:44:06,VALID,916.653,VALID,0.0,VALID,96.016,VALID,-0.022,VALID,21.028,VALID,121.0,VALID,1.433,
2018-05-28, 02:45:06,VALID,916.649,VALID,0.0,VALID,95.942,VALID,-0.015,VALID,21.044,VALID,108.0,VALID,1.228,
2018-05-28, 02:46:06,VALID,916.648,VALID,0.0,VALID,95.892,VALID,0.0,VALID,21.041,VALID,113.0,VALID,1.388,
2018-05-28, 02:47:06,VALID,916.646,VALID,0.0,VALID,95.86,VALID,-0.01,VALID,21.048,VALID,112.0,VALID,1.484,
2018-05-28, 02:48:06,VALID,916.64,VALID,0.0,VALID,95.838,VALID,-0.002,VALID,21.052,VALID,112.0,VALID,1.63,
2018-05-28, 02:49:06,VALID,916.631,VALID,0.0,VALID,95.837,VALID,0.029,VALID,21.057,VALID,111.0,VALID,1.409,
2018-05-28, 02:50:06,VALID,916.616,VALID,0.0,VALID,95.86,VALID,0.041,VALID,21.051,VALID,121.0,VALID,1.19,
2018-05-28, 02:51:06,VALID,916.608,VALID,0.0,VALID,95.923,VALID,0.023,VALID,21.056,VALID,126.0,VALID,1.341,
2018-05-28, 02:52:06,VALID,916.591,VALID,0.0,VALID,95.957,VALID,0.019,VALID,21.051,VALID,126.0,VALID,1.259,
2018-05-28, 02:53:06,VALID,916.585,VALID,0.0,VALID,96.022,VALID,0.02,VALID,21.051,VALID,123.0,VALID,0.93,
2018-05-28, 02:54:06,VALID,916.568,VALID,0.0,VALID,96.078,VALID,0.026,VALID,21.056,VALID,151.0,VALID,0.209,
2018-05-28, 02:55:06,VALID,916.554,VALID,0.0,VALID,96.05,VALID,0.031,VALID,21.054,VALID,132.0,VALID,1.617,
2018-05-28, 02:56:06,VALID,916.555,VALID,0.0,VALID,96.119,VALID,0.038,VALID,21.038,VALID,143.0,VALID,0.416,
2018-05-28, 02:57:06,VALID,916.551,VALID,0.0,VALID,96.23,VALID,0.037,VALID,21.03,VALID,118.0,VALID,0.846,
2018-05-28, 02:58:06,VALID,916.528,VALID,0.0,VALID,96.164,VALID,0.05,VALID,21.032,VALID,127.0,VALID,1.601,
2018-05-28, 02:59:06,VALID,916.525,VALID,0.0,VALID,96.094,VALID,0.05,VALID,21.055,VALID,132.0,VALID,1.697,
2018-05-28, 03:00:06,VALID,916.52,VALID,0.0,VALID,95.91,VALID,0.034,VALID,21.082,VALID,128.0,VALID,1.671,
2018-05-28, 03:01:06,VALID,916.504,VALID,0.0,VALID,95.735,VALID,0.023,VALID,21.112,VALID,143.0,VALID,1.184,
2018-05-28, 03:02:06,VALID,916.501,VALID,0.0,VALID,95.695,VALID,0.031,VALID,21.136,VALID,168.0,VALID,0.267,
2018-05-28, 03:03:06,VALID,916.494,VALID,0.0,VALID,95.639,VALID,0.034,VALID,21.131,VALID,139.0,VALID,0.798,
2018-05-28, 03:04:06,VALID,916.499,VALID,0.0,VALID,95.653,VALID,0.035,VALID,21.115,VALID,137.0,VALID,0.22,
2018-05-28, 03:05:06,VALID,916.486,VALID,0.0,VALID,95.679,VALID,0.023,VALID,21.1,VALID,116.0,VALID,0.445,
2018-05-28, 03:06:06,VALID,916.491,VALID,0.0,VALID,95.748,VALID,0.036,VALID,21.091,VALID,167.0,VALID,0.642,
2018-05-28, 03:07:06,VALID,916.486,VALID,0.0,VALID,95.702,VALID,0.036,VALID,21.073,VALID,147.0,VALID,1.192,
2018-05-28, 03:08:06,VALID,916.488,VALID,0.0,VALID,95.767,VALID,0.027,VALID,21.077,VALID,149.0,VALID,0.887,
2018-05-28, 03:09:06,VALID,916.481,VALID,0.0,VALID,95.787,VALID,0.015,VALID,21.089,VALID,134.0,VALID,0.31,
2018-05-28, 03:10:06,VALID,916.471,VALID,0.0,VALID,95.776,VALID,0.023,VALID,21.093,VALID,126.0,VALID,1.162,
2018-05-28, 03:11:06,VALID,916.476,VALID,0.0,VALID,95.775,VALID,0.009,VALID,21.085,VALID,146.0,VALID,0.994,
2018-05-28, 03:12:06,VALID,916.487,VALID,0.0,VALID,95.758,VALID,0.005,VALID,21.08,VALID,135.0,VALID,1.625,
2018-05-28, 03:13:06,VALID,916.49,VALID,0.0,VALID,95.691,VALID,0.025,VALID,21.089,VALID,137.0,VALID,1.576,
2018-05-28, 03:14:06,VALID,916.475,VALID,0.0,VALID,95.77,VALID,0.045,VALID,21.088,VALID,133.0,VALID,1.695,
2018-05-28, 03:15:06,VALID,916.48,VALID,0.0,VALID,95.858,VALID,0.032,VALID,21.08,VALID,140.0,VALID,1.665,
2018-05-28, 03:16:06,VALID,916.47,VALID,0.0,VALID,95.955,VALID,0.042,VALID,21.062,VALID,128.0,VALID,1.631,
2018-05-28, 03:17:06,VALID,916.475,VALID,0.0,VALID,96.08,VALID,0.027,VALID,21.05,VALID,129.0,VALID,1.358,
2018-05-28, 03:18:06,VALID,916.47,VALID,0.0,VALID,96.162,VALID,0.016,VALID,21.034,VALID,117.0,VALID,1.146,
2018-05-28, 03:19:06,VALID,916.483,VALID,0.0,VALID,96.194,VALID,0.021,VALID,21.017,VALID,133.0,VALID,0.918,
2018-05-28, 03:20:06,VALID,916.462,VALID,0.0,VALID,96.315,VALID,0.048,VALID,21.001,VALID,142.0,VALID,0.851,
2018-05-28, 03:21:06,VALID,916.465,VALID,0.0,VALID,96.35,VALID,0.031,VALID,20.993,VALID,128.0,VALID,1.095,
2018-05-28, 03:22:07,VALID,916.469,VALID,0.0,VALID,96.422,VALID,0.027,VALID,21.009,VALID,146.0,VALID,1.325,
2018-05-28, 03:23:07,VALID,916.466,VALID,0.0,VALID,96.383,VALID,0.031,VALID,21.028,VALID,149.0,VALID,1.239,
2018-05-28, 03:24:07,VALID,916.456,VALID,0.0,VALID,96.373,VALID,0.027,VALID,21.043,VALID,133.0,VALID,1.016,
2018-05-28, 03:25:07,VALID,916.445,VALID,0.0,VALID,96.35,VALID,0.022,VALID,21.042,VALID,132.0,VALID,0.538,
2018-05-28, 03:26:07,VALID,916.432,VALID,0.0,VALID,96.316,VALID,0.03,VALID,21.033,VALID,151.0,VALID,1.034,
2018-05-28, 03:27:07,VALID,916.431,VALID,0.0,VALID,96.335,VALID,0.046,VALID,21.033,VALID,140.0,VALID,0.889,
2018-05-28, 03:28:07,VALID,916.422,VALID,0.0,VALID,96.413,VALID,0.021,VALID,21.041,VALID,113.0,VALID,1.205,
2018-05-28, 03:29:07,VALID,916.396,VALID,0.0,VALID,96.391,VALID,0.042,VALID,21.041,VALID,128.0,VALID,1.122,
2018-05-28, 03:30:07,VALID,916.386,VALID,0.0,VALID,96.402,VALID,0.037,VALID,21.044,VALID,135.0,VALID,0.966,
2018-05-28, 03:31:07,VALID,916.381,VALID,0.0,VALID,96.437,VALID,0.037,VALID,21.036,VALID,136.0,VALID,0.882,
2018-05-28, 03:32:07,VALID,916.372,VALID,0.0,VALID,96.478,VALID,0.02,VALID,21.033,VALID,129.0,VALID,1.404,
2018-05-28, 03:33:07,VALID,916.356,VALID,0.0,VALID,96.467,VALID,0.005,VALID,21.034,VALID,146.0,VALID,0.817,
2018-05-28, 03:34:07,VALID,916.336,VALID,0.0,VALID,96.476,VALID,-0.026,VALID,21.039,VALID,142.0,VALID,0.805,
2018-05-28, 03:35:07,VALID,916.334,VALID,0.0,VALID,96.454,VALID,-0.03,VALID,21.029,VALID,136.0,VALID,0.197,
2018-05-28, 03:36:07,VALID,916.331,VALID,0.0,VALID,96.426,VALID,-0.025,VALID,21.003,VALID,127.0,VALID,0.579,
2018-05-28, 03:37:07,VALID,916.315,VALID,0.0,VALID,96.467,VALID,-0.026,VALID,20.983,VALID,141.0,VALID,0.052,
2018-05-28, 03:38:07,VALID,916.303,VALID,0.0,VALID,96.588,VALID,-0.022,VALID,20.974,VALID,144.0,VALID,0.471,
2018-05-28, 03:39:07,VALID,916.283,VALID,0.0,VALID,96.653,VALID,-0.019,VALID,20.961,INVALID,360.0,VALID,0.0,